Main page
METAR-TAF:

METAR-TAF

Airports :

Perryton Ochiltree County Airport

Perryton, Texas, United States

latitude: 36-24N, longitude: 100-44W, elevation: 2919 ft

Current weather observation

The report was made 29 minutes ago, at 14:55 UTC
Wind 8 mph from the West
Temperature 57°F
Humidity 63%
Pressure 30.09 in. Hg
Visibility: 10 miles
Clear sky

METAR: KPYX 221455Z AUTO 26007KT 10SM CLR 14/07 A3009 RMK AO2 T01380073

Time: 10:24 (15:24 UTC)


TAF: missing

Weather observations and forecasts of more than 4000 airports (METAR and TAF reports).

The available stations are represented by yellow and red dots on the map.

Hover mouse over dot to see the name of the station.

Then click to see weather observations and forecasts.

To change the map : click on the green buttons with a black cross to zoom in, on the green button with a dash to zoom out, or on the green arrows for adjacent maps.


METAR-TAF: